Погода в Витебске

Погода в Витебске : погода сейчас, прогноз погоды и архив. Всё, что Вы хотите узнать о погоде в Витебске!

Поиск расширенной информации на нашем сайте:

Другие новости

Новости СМИ2

Главная страница сайта

Новости сайта

03.07.2017

Напоминаем, что на нашем специализированном сайте Метеоцентр.Азия вы можете получить высокодетализированные автоматические прогнозы погоды по пунктам России, СНГ и мира в авиационном формате (включающие направление и скорость ветра, видимость, явления погоды, количество и форму облачности, нижнюю и верхнюю границу облачности).

Рекомендуем: Изготовление информационных табличек изготовление табличек ростов.

Погода в Витебске - сегодня

Время (UTC), дата Ветер
(°,м/с) 
Видим.   Явления Облачность Т
(°С)
Тd
(°С)
f(%) Тe
(°С)
Pmin
(гПа)
dP
(гПа)
Po
(мм)
O2
(г/м3)
Тmin Tmax R s Состояние
почвы
09 17.06.18 тихо ()   27000 м    9/9 540 м 
[Sc]
+18.8 +13.9 73 +26  1017  747  279           
12 17.06.18 310 (СЗ) 21000 м    9/9 700 м 
[Sc]
+21 +15.4 70 +30  1016.4  -0.4  747  276           
15 17.06.18 270 (З) 19000 м    9/6 1470 м средняя, верхняя 
[Sc|Ac trans|Ci fib]
+20.9 +15.7 72 +31  1015.8  -0.6  747  276           
18 17.06.18 тихо ()   20000 м    9/8 630 м верхняя 
[Sc|Ci fib]
+18.1 +15 82 +27  1016.1  747  279    +23.4       
21 17.06.18 тихо ()   8000 м  дымка  6/6 1300 м 
[Sc diur, vesp]
+15.5 +14.2 92 +23  1016.4  0.1  747  282           
00 18.06.18 тихо ()   6000 м  дымка  8/8 1050 м 
[Sc]
+15.1 +14.2 94 +23  1016.4  747  282           
03 18.06.18 тихо ()   3400 м  дымка  4/0 верхняя 
[Ci fib]
+15.1 +14.7 97 +23  1016.3  -0.1  747  282           
06 18.06.18 010 (С) 29000 м    3/0 верхняя 
[Ci fib]
+20.9 +15.1 69 +30  1016.1  0.3  747  276  +12.9         
09 18.06.18 290 (З) 35000 м    4/4 1000 м 
[Cu hum]
+24.7 +14.5 53 +33  1015.7  -0.1  747  273           
12 18.06.18 040 (СВ) 35000 м    8/5 1000 м верхняя 
[Cu med, cong|Cs]
+25.7 +13.6 47 +32  1015.2  -0.4  746  272           
15 18.06.18 260 (З) 30000 м    8/5 1000 м средняя, верхняя 
[Cu med, cong|Ac trans|Cs]
+25.6 +12.6 44 +31  1014.5  -0.7  746  272           
18 18.06.18 230 (ЮЗ) 30000 м    8/3 1000 м средняя, верхняя 
[Cu med, cong|Ac trans|Cs]
+23.6 +13.7 54 +30  1014.3  -0.4  746  274    +26.9       
21 18.06.18 220 (ЮЗ) 27000 м    6/0 средняя, верхняя 
[Ac trans|Cs]
+20.8 +13.8 64 +28  1014.7  0.2  746  276           
00 19.06.18 230 (ЮЗ) 28000 м    6/0 средняя, верхняя 
[Ac trans|Cs]
+19.2 +12.5 65 +25  1014.6  -0.2  746  278           
03 19.06.18 300 (СЗ) 24000 м    9/0 средняя, верхняя 
[Ac As|Cs]
+16.9 +13.3 79 +24  1015.7  0.8  746  281           
06 19.06.18 350 (С) 26000 м    6/0 средняя, верхняя 
[Ac cast|Ci sp]
+21.7 +15.2 67 +31  1015.4  0.1  746  275  +16.8         
09 19.06.18 280 (З) 30000 м    6/1 1000 м средняя, верхняя 
[Cu med, cong|Ac trans|Ci fib]
+23 +14.1 57 +30  1014.8  -0.4  746  274           
12 19.06.18 250 (З) 35000 м    6/3 1000 м верхняя 
[Cu hum|Ci fib]
+25.1 +9.9 38 +26  1013.5  -1.2  745  273           
15 19.06.18 270 (З) 24000 м    9/0 средняя, верхняя 
[Ac trans|Cs]
+24.2 +10.9 43 +27  1011.9  -1.6  744  273           
18 19.06.18 250 (З) 30000 м    9/0 средняя, верхняя 
[Ac trans|Ci fib]
+22.7 +10.3 45 +24  1010.9  -1.1  743  275    +26.6       
21 19.06.18 270 (З) 30000 м    8/6 1350 м верхняя 
[Sc|Ci fib]
+19.2 +10.9 59 +23  1012.3  1.1  744  278           
00 20.06.18 280 (З) 35000 м    6/6 1410 м 
[Sc]
+16.2 +9.9 66 +18  1014  1.4  745  282           
03 20.06.18 250 (З) 28000 м    ясно 
+15.2 +9.4 68 +17  1015  0.9  746  283           
06 20.06.18 260 (З) 35000 м    8/6 660 м верхняя 
[Cu hum|Ci fib]
+18.3 +11.4 64 +22  1014.7  746  279  +13.9         
09 20.06.18 260 (З) 4-10{12}  24000 м    8/5 1000 м верхняя 
[Cu med, cong|Ci fib]
+20.7 +10.1 51 +22  1014.1  -0.4  745  277           
Время (UTC), дата Ветер
(°,м/с) 
Видим.   Явления Облачность Т
(°С)
Тd
(°С)
f(%) Тe
(°С)
Pmin
(гПа)
dP
(гПа)
Po
(мм)
O2
(г/м3)
Тmin Tmax R s Состояние
почвы

Для получения пояснительной информации подведите курсор к названию столбца.

ПОГОДА в Витебске - архив

Всё, что Вы хотите узнать о погоде в Витебске - удобно и подробно!

Выберите нужную дату (начиная с 1 января 2015* года) и нажмите кнопку "Найти".
Будут отображены архивные сводки погоды по пункту Витебск, начиная с указанной даты.


Отображать данные в формате CSV (для использования в таблицах Excel)


Внимание! Наш архив погоды предназначен исключительно для личного некоммерческого использования в познавательных целях. Если Вам необходимы официальные справки о состоянии погоды (для производственных, юридических, коммерческих и т.п. целей), обращайтесь в органы Росгидромета.

*Примечание: данная дата относится к архиву по метеостанциям СССР (Россия, СНГ, Балтия).
Архив по метеостанциям Зарубежной Европы и Азии (кроме Китая) хранится 10 дней, по другим регионам земного шара (Китай, Африка, Америка, Австралия, Океания) - 1 день.

Витебск - район местоположения метеостанции


Название, широта, долгота, высота метеостанции:
Витебск (город) 55.1°ш. 30.3°д. 170 м над ур. моря [Беларусь]

Дополнительная информация

В oтличие oт бoльшинства пoгoдных сайтoв мы публикуем пoдрoбную метеoинфoрмацию в детальнoм прoфессиoнальнoм фoрмате.

Характеристики температуры и влажнoсти вoздуха измеряются на высoте 2 м в тени вдали oт зданий и деревьев.
Скoрoсть ветра измеряется на высoте 10 м (на урoвне рoста челoвека скoрoсть ветра ниже в 1.5-2 раза). Если метеoстанция нахoдится в гoрoде или в лесу, тo скoрoсть ветра занижена на 2-4 м/с пo сравнению с oткрытым местoм. Скoрoсть ветра над акватoриями крупных рек и oзёр, а также на вершинах хoлмoв на 2-5 м/с выше, чем в oбычных услoвиях.
Атмoсфернoе давление в разных тoчках местнoсти мoжет значительнo oтличаться oт давления на метеoстанции, в зависимoсти oт услoвий рельефа (при пoдъёме на 10 м давление пoнижается примернo на 1 мм рт.ст.).